date,time,SUV Intensity [MED/Hr],UV Index,Daily total [MED],Since Last [MED]
15/03/2023,00:04:04,0.000,0.0,0.0,0.0
15/03/2023,00:05:04,-0.001,0.0,0.0,0.0
15/03/2023,00:06:04,0.001,0.0,0.0,0.0
15/03/2023,00:07:04,0.000,0.0,0.0,0.0
15/03/2023,00:08:04,0.000,0.0,0.0,0.0
15/03/2023,00:09:04,0.000,0.0,0.0,0.0
15/03/2023,00:10:04,0.000,0.0,0.0,0.0
15/03/2023,00:11:04,-0.000,0.0,0.0,0.0
15/03/2023,00:12:04,0.000,0.0,0.0,0.0
15/03/2023,00:13:04,-0.001,0.0,0.0,0.0
15/03/2023,00:14:04,-0.000,0.0,0.0,0.0
15/03/2023,00:15:05,0.001,0.0,0.0,0.0
15/03/2023,00:16:04,-0.000,0.0,0.0,0.0
15/03/2023,00:17:04,-0.000,0.0,0.0,0.0
15/03/2023,00:18:04,0.000,0.0,0.0,0.0
15/03/2023,00:19:04,0.001,0.0,0.0,0.0
15/03/2023,00:20:04,-0.001,0.0,0.0,0.0
15/03/2023,00:21:04,-0.001,0.0,0.0,0.0
15/03/2023,00:22:04,0.001,0.0,0.0,0.0
15/03/2023,00:23:04,0.001,0.0,0.0,0.0
15/03/2023,00:24:04,0.000,0.0,0.0,0.0
15/03/2023,00:25:04,-0.001,0.0,0.0,0.0
15/03/2023,00:26:04,0.000,0.0,0.0,0.0
15/03/2023,00:27:04,-0.000,0.0,0.0,0.0
15/03/2023,00:28:04,-0.001,0.0,0.0,0.0
15/03/2023,00:29:05,0.001,0.0,0.0,0.0
15/03/2023,00:30:04,0.000,0.0,0.0,0.0
15/03/2023,00:31:04,0.000,0.0,0.0,0.0
15/03/2023,00:32:04,0.000,0.0,0.0,0.0
15/03/2023,00:33:04,0.001,0.0,0.0,0.0
15/03/2023,00:34:04,0.000,0.0,0.0,0.0
15/03/2023,00:35:04,0.000,0.0,0.0,0.0
15/03/2023,00:36:04,0.000,0.0,0.0,0.0
15/03/2023,00:37:04,0.000,0.0,0.0,0.0
15/03/2023,00:38:04,0.000,0.0,0.0,0.0
15/03/2023,00:39:04,-0.001,0.0,0.0,0.0
15/03/2023,00:40:04,-0.001,0.0,0.0,0.0
15/03/2023,00:41:04,0.000,0.0,0.0,0.0
15/03/2023,00:42:04,0.000,0.0,0.0,0.0
15/03/2023,00:43:04,0.000,0.0,0.0,0.0
15/03/2023,00:44:04,0.000,0.0,0.0,0.0
15/03/2023,00:45:04,0.001,0.0,0.0,0.0
15/03/2023,00:46:04,0.000,0.0,0.0,0.0
15/03/2023,00:47:04,0.000,0.0,0.0,0.0
15/03/2023,00:48:03,-0.001,0.0,0.0,0.0
15/03/2023,00:49:04,0.000,0.0,0.0,0.0
15/03/2023,00:50:05,-0.001,0.0,0.0,0.0
15/03/2023,00:51:04,0.001,0.0,0.0,0.0
15/03/2023,00:52:04,0.000,0.0,0.0,0.0
15/03/2023,00:53:04,0.000,0.0,0.0,0.0
15/03/2023,00:54:04,0.000,0.0,0.0,0.0
15/03/2023,00:55:04,0.000,0.0,0.0,0.0
15/03/2023,00:56:04,0.000,0.0,0.0,0.0
15/03/2023,00:57:04,0.001,0.0,0.0,0.0
15/03/2023,00:58:04,0.001,0.0,0.0,0.0
15/03/2023,00:59:04,-0.000,0.0,0.0,0.0
15/03/2023,01:00:04,0.001,0.0,0.0,0.0
15/03/2023,01:01:04,0.001,0.0,0.0,0.0
15/03/2023,01:02:04,0.001,0.0,0.0,0.0
15/03/2023,01:03:04,0.000,0.0,0.0,0.0
15/03/2023,01:04:04,-0.001,0.0,0.0,0.0
15/03/2023,01:05:04,0.001,0.0,0.0,0.0
15/03/2023,01:06:04,0.000,0.0,0.0,0.0
15/03/2023,01:07:05,0.001,0.0,0.0,0.0
15/03/2023,01:08:04,0.000,0.0,0.0,0.0
15/03/2023,01:09:05,0.000,0.0,0.0,0.0
15/03/2023,01:10:04,0.001,0.0,0.0,0.0
15/03/2023,01:11:04,0.000,0.0,0.0,0.0
15/03/2023,01:12:04,0.001,0.0,0.0,0.0
15/03/2023,01:13:05,0.000,0.0,0.0,0.0
15/03/2023,01:14:04,0.001,0.0,0.0,0.0
15/03/2023,01:15:04,-0.000,0.0,0.0,0.0
15/03/2023,01:16:04,0.000,0.0,0.0,0.0
15/03/2023,01:17:04,0.001,0.0,0.0,0.0
15/03/2023,01:18:04,-0.000,0.0,0.0,0.0
15/03/2023,01:19:04,0.001,0.0,0.0,0.0
15/03/2023,01:20:04,-0.000,0.0,0.0,0.0
15/03/2023,01:21:04,0.000,0.0,0.0,0.0
15/03/2023,01:22:04,0.001,0.0,0.0,0.0
15/03/2023,01:23:04,0.000,0.0,0.0,0.0
15/03/2023,01:24:04,-0.001,0.0,0.0,0.0
15/03/2023,01:25:04,0.001,0.0,0.0,0.0
15/03/2023,01:26:05,0.000,0.0,0.0,0.0
15/03/2023,01:27:04,0.000,0.0,0.0,0.0
15/03/2023,01:28:04,0.000,0.0,0.0,0.0
15/03/2023,01:29:04,0.000,0.0,0.0,0.0
15/03/2023,01:30:05,-0.001,0.0,0.0,0.0
15/03/2023,01:31:04,0.000,0.0,0.0,0.0
15/03/2023,01:32:04,0.000,0.0,0.0,0.0
15/03/2023,01:33:04,0.001,0.0,0.0,0.0
15/03/2023,01:34:04,0.000,0.0,0.0,0.0
15/03/2023,01:35:04,0.000,0.0,0.0,0.0
15/03/2023,01:36:04,0.000,0.0,0.0,0.0
15/03/2023,01:37:04,0.000,0.0,0.0,0.0
15/03/2023,01:38:04,0.000,0.0,0.0,0.0
15/03/2023,01:39:04,0.000,0.0,0.0,0.0
15/03/2023,01:40:04,0.001,0.0,0.0,0.0
15/03/2023,01:41:04,0.000,0.0,0.0,0.0
15/03/2023,01:42:04,0.000,0.0,0.0,0.0
15/03/2023,01:43:04,0.000,0.0,0.0,0.0
15/03/2023,01:44:04,0.000,0.0,0.0,0.0
15/03/2023,01:45:04,-0.001,0.0,0.0,0.0
15/03/2023,01:46:04,0.001,0.0,0.0,0.0
15/03/2023,01:47:04,0.000,0.0,0.0,0.0
15/03/2023,01:48:04,0.000,0.0,0.0,0.0
15/03/2023,01:49:05,-0.001,0.0,0.0,0.0
15/03/2023,01:50:04,-0.001,0.0,0.0,0.0
15/03/2023,01:51:05,0.000,0.0,0.0,0.0
15/03/2023,01:52:04,0.000,0.0,0.0,0.0
15/03/2023,01:53:04,0.000,0.0,0.0,0.0
15/03/2023,01:54:04,0.000,0.0,0.0,0.0
15/03/2023,01:55:04,0.000,0.0,0.0,0.0
15/03/2023,01:56:04,0.000,0.0,0.0,0.0
15/03/2023,01:57:05,0.001,0.0,0.0,0.0
15/03/2023,01:58:05,0.000,0.0,0.0,0.0
15/03/2023,01:59:05,0.000,0.0,0.0,0.0
15/03/2023,02:00:04,0.000,0.0,0.0,0.0
15/03/2023,02:01:04,0.000,0.0,0.0,0.0
15/03/2023,02:02:04,0.000,0.0,0.0,0.0
15/03/2023,02:03:04,0.000,0.0,0.0,0.0
15/03/2023,02:04:04,0.000,0.0,0.0,0.0
15/03/2023,02:05:05,0.000,0.0,0.0,0.0
15/03/2023,02:06:04,0.000,0.0,0.0,0.0
15/03/2023,02:07:04,-0.000,0.0,0.0,0.0
15/03/2023,02:08:04,0.000,0.0,0.0,0.0
15/03/2023,02:09:04,0.000,0.0,0.0,0.0
15/03/2023,02:10:04,0.000,0.0,0.0,0.0
15/03/2023,02:11:04,0.000,0.0,0.0,0.0
15/03/2023,02:12:04,0.001,0.0,0.0,0.0
15/03/2023,02:13:04,0.001,0.0,0.0,0.0
15/03/2023,02:14:03,0.000,0.0,0.0,0.0
15/03/2023,02:15:04,0.000,0.0,0.0,0.0
15/03/2023,02:16:05,0.000,0.0,0.0,0.0
15/03/2023,02:17:04,0.000,0.0,0.0,0.0
15/03/2023,02:18:04,0.000,0.0,0.0,0.0
15/03/2023,02:19:05,-0.000,0.0,0.0,0.0
15/03/2023,02:20:04,-0.001,0.0,0.0,0.0
15/03/2023,02:21:04,-0.001,0.0,0.0,0.0
15/03/2023,02:22:05,0.000,0.0,0.0,0.0
15/03/2023,02:23:05,0.001,0.0,0.0,0.0
15/03/2023,02:24:04,0.001,0.0,0.0,0.0
15/03/2023,02:25:04,-0.001,0.0,0.0,0.0
15/03/2023,02:26:04,0.000,0.0,0.0,0.0
15/03/2023,02:27:04,0.000,0.0,0.0,0.0
15/03/2023,02:28:04,0.000,0.0,0.0,0.0
15/03/2023,02:29:04,0.000,0.0,0.0,0.0
15/03/2023,02:30:04,-0.001,0.0,0.0,0.0
15/03/2023,02:31:05,0.000,0.0,0.0,0.0
15/03/2023,02:32:04,0.000,0.0,0.0,0.0
15/03/2023,02:33:05,0.000,0.0,0.0,0.0
15/03/2023,02:34:05,-0.000,0.0,0.0,0.0
15/03/2023,02:35:04,0.001,0.0,0.0,0.0
15/03/2023,02:36:04,0.000,0.0,0.0,0.0
15/03/2023,02:37:04,0.001,0.0,0.0,0.0
15/03/2023,02:38:05,0.000,0.0,0.0,0.0
15/03/2023,02:39:04,0.000,0.0,0.0,0.0
15/03/2023,02:40:04,0.000,0.0,0.0,0.0
15/03/2023,02:41:05,0.001,0.0,0.0,0.0
15/03/2023,02:42:04,-0.000,0.0,0.0,0.0
15/03/2023,02:43:04,0.000,0.0,0.0,0.0
15/03/2023,02:44:04,0.000,0.0,0.0,0.0
15/03/2023,02:45:04,0.000,0.0,0.0,0.0
15/03/2023,02:46:05,-0.001,0.0,0.0,0.0
15/03/2023,02:47:04,0.001,0.0,0.0,0.0
15/03/2023,02:48:04,0.000,0.0,0.0,0.0
15/03/2023,02:49:04,-0.001,0.0,0.0,0.0
15/03/2023,02:50:04,0.000,0.0,0.0,0.0
15/03/2023,02:51:04,0.001,0.0,0.0,0.0
15/03/2023,02:52:04,0.000,0.0,0.0,0.0
15/03/2023,02:53:04,0.000,0.0,0.0,0.0
15/03/2023,02:54:05,0.001,0.0,0.0,0.0
15/03/2023,02:55:05,-0.000,0.0,0.0,0.0
15/03/2023,02:56:05,0.001,0.0,0.0,0.0
15/03/2023,02:57:04,0.000,0.0,0.0,0.0
15/03/2023,02:58:05,0.001,0.0,0.0,0.0
15/03/2023,02:59:04,0.001,0.0,0.0,0.0
15/03/2023,03:00:04,0.000,0.0,0.0,0.0
15/03/2023,03:01:05,0.000,0.0,0.0,0.0
15/03/2023,03:02:05,0.000,0.0,0.0,0.0
15/03/2023,03:03:04,0.000,0.0,0.0,0.0
15/03/2023,03:04:04,0.000,0.0,0.0,0.0
15/03/2023,03:05:04,0.001,0.0,0.0,0.0
15/03/2023,03:06:05,-0.000,0.0,0.0,0.0
15/03/2023,03:07:04,-0.000,0.0,0.0,0.0
15/03/2023,03:08:05,0.000,0.0,0.0,0.0
15/03/2023,03:09:04,-0.000,0.0,0.0,0.0
15/03/2023,03:10:04,0.000,0.0,0.0,0.0
15/03/2023,03:11:04,0.001,0.0,0.0,0.0
15/03/2023,03:12:04,0.001,0.0,0.0,0.0
15/03/2023,03:13:04,-0.000,0.0,0.0,0.0
15/03/2023,03:14:04,-0.000,0.0,0.0,0.0
15/03/2023,03:15:05,0.000,0.0,0.0,0.0
15/03/2023,03:16:04,0.001,0.0,0.0,0.0
15/03/2023,03:17:05,0.000,0.0,0.0,0.0
15/03/2023,03:18:04,0.002,0.0,0.0,0.0
15/03/2023,03:19:05,0.000,0.0,0.0,0.0
15/03/2023,03:20:05,0.000,0.0,0.0,0.0
15/03/2023,03:21:04,0.001,0.0,0.0,0.0
15/03/2023,03:22:03,0.001,0.0,0.0,0.0
15/03/2023,03:23:26,0.000,0.0,0.0,0.0
15/03/2023,03:25:04,0.001,0.0,0.0,0.0
15/03/2023,03:26:05,0.000,0.0,0.0,0.0
15/03/2023,03:27:05,-0.001,0.0,0.0,0.0
15/03/2023,03:28:04,0.001,0.0,0.0,0.0
15/03/2023,03:29:06,0.000,0.0,0.0,0.0
15/03/2023,03:30:05,0.001,0.0,0.0,0.0
15/03/2023,03:31:05,0.001,0.0,0.0,0.0
15/03/2023,03:32:05,0.000,0.0,0.0,0.0
15/03/2023,03:33:05,0.001,0.0,0.0,0.0
15/03/2023,03:34:04,0.000,0.0,0.0,0.0
15/03/2023,03:35:05,0.002,0.0,0.0,0.0
15/03/2023,03:36:04,0.001,0.0,0.0,0.0
15/03/2023,03:37:04,-0.000,0.0,0.0,0.0
15/03/2023,03:38:05,0.000,0.0,0.0,0.0
15/03/2023,03:39:04,0.000,0.0,0.0,0.0
15/03/2023,03:40:04,0.001,0.0,0.0,0.0
15/03/2023,03:41:05,0.000,0.0,0.0,0.0
15/03/2023,03:42:04,0.001,0.0,0.0,0.0
15/03/2023,03:43:05,0.000,0.0,0.0,0.0
15/03/2023,03:44:05,0.000,0.0,0.0,0.0
15/03/2023,03:45:05,-0.000,0.0,0.0,0.0
15/03/2023,03:46:05,0.000,0.0,0.0,0.0
15/03/2023,03:47:04,0.001,0.0,0.0,0.0
15/03/2023,03:48:05,0.001,0.0,0.0,0.0
15/03/2023,03:49:05,0.001,0.0,0.0,0.0
15/03/2023,03:50:04,0.000,0.0,0.0,0.0
15/03/2023,03:51:04,0.000,0.0,0.0,0.0
15/03/2023,03:52:04,0.000,0.0,0.0,0.0
15/03/2023,03:53:04,0.000,0.0,0.0,0.0
15/03/2023,03:54:05,-0.000,0.0,0.0,0.0
15/03/2023,03:55:05,0.001,0.0,0.0,0.0
15/03/2023,03:56:04,-0.000,0.0,0.0,0.0
15/03/2023,03:57:04,0.001,0.0,0.0,0.0
15/03/2023,03:58:04,0.000,0.0,0.0,0.0
15/03/2023,03:59:05,0.000,0.0,0.0,0.0
15/03/2023,04:00:05,0.002,0.0,0.0,0.0
15/03/2023,04:01:05,0.000,0.0,0.0,0.0
15/03/2023,04:02:04,0.001,0.0,0.0,0.0
15/03/2023,04:03:04,0.000,0.0,0.0,0.0
15/03/2023,04:04:04,0.002,0.0,0.0,0.0
15/03/2023,04:05:05,0.001,0.0,0.0,0.0
15/03/2023,04:06:05,-0.000,0.0,0.0,0.0
15/03/2023,04:07:05,0.000,0.0,0.0,0.0
15/03/2023,04:08:05,0.000,0.0,0.0,0.0
15/03/2023,04:09:04,-0.000,0.0,0.0,0.0
15/03/2023,04:10:05,0.001,0.0,0.0,0.0
15/03/2023,04:11:05,0.001,0.0,0.0,0.0
15/03/2023,04:12:05,0.001,0.0,0.0,0.0
15/03/2023,04:13:04,0.000,0.0,0.0,0.0
15/03/2023,04:14:04,0.000,0.0,0.0,0.0
15/03/2023,04:15:04,0.000,0.0,0.0,0.0
15/03/2023,04:16:04,0.001,0.0,0.0,0.0
15/03/2023,04:17:05,0.001,0.0,0.0,0.0
15/03/2023,04:18:04,-0.000,0.0,0.0,0.0
15/03/2023,04:19:05,0.001,0.0,0.0,0.0
15/03/2023,04:20:05,0.000,0.0,0.0,0.0
15/03/2023,04:21:04,0.000,0.0,0.0,0.0
15/03/2023,04:22:04,-0.001,0.0,0.0,0.0
15/03/2023,04:23:04,-0.001,0.0,0.0,0.0
15/03/2023,04:24:04,0.000,0.0,0.0,0.0
15/03/2023,04:25:05,0.000,0.0,0.0,0.0
15/03/2023,04:26:05,0.000,0.0,0.0,0.0
15/03/2023,04:27:04,0.000,0.0,0.0,0.0
15/03/2023,04:28:05,0.001,0.0,0.0,0.0
15/03/2023,04:29:04,-0.000,0.0,0.0,0.0
15/03/2023,04:30:05,0.001,0.0,0.0,0.0
15/03/2023,04:31:05,0.000,0.0,0.0,0.0
15/03/2023,04:32:05,-0.001,0.0,0.0,0.0
15/03/2023,04:33:05,0.000,0.0,0.0,0.0
15/03/2023,04:34:04,-0.000,0.0,0.0,0.0
15/03/2023,04:35:04,0.001,0.0,0.0,0.0
15/03/2023,04:36:04,-0.000,0.0,0.0,0.0
15/03/2023,04:37:05,-0.001,0.0,0.0,0.0
15/03/2023,04:38:05,0.001,0.0,0.0,0.0
15/03/2023,04:39:05,0.001,0.0,0.0,0.0
15/03/2023,04:40:04,0.000,0.0,0.0,0.0
15/03/2023,04:41:04,0.001,0.0,0.0,0.0
15/03/2023,04:42:04,0.001,0.0,0.0,0.0
15/03/2023,04:43:04,0.000,0.0,0.0,0.0
15/03/2023,04:44:05,-0.000,0.0,0.0,0.0
15/03/2023,04:45:04,0.000,0.0,0.0,0.0
15/03/2023,04:46:05,0.000,0.0,0.0,0.0
15/03/2023,04:47:04,0.000,0.0,0.0,0.0
15/03/2023,04:48:04,0.000,0.0,0.0,0.0
15/03/2023,04:49:05,0.000,0.0,0.0,0.0
15/03/2023,04:50:05,-0.000,0.0,0.0,0.0
15/03/2023,04:51:04,0.001,0.0,0.0,0.0
15/03/2023,04:52:04,0.000,0.0,0.0,0.0
15/03/2023,04:53:04,0.000,0.0,0.0,0.0
15/03/2023,04:54:04,0.000,0.0,0.0,0.0
15/03/2023,04:55:04,0.001,0.0,0.0,0.0
15/03/2023,04:56:04,0.001,0.0,0.0,0.0
15/03/2023,04:57:04,-0.001,0.0,0.0,0.0
15/03/2023,04:58:05,0.001,0.0,0.0,0.0
15/03/2023,04:59:04,0.001,0.0,0.0,0.0
15/03/2023,05:00:05,0.001,0.0,0.0,0.0
15/03/2023,05:01:04,0.001,0.0,0.0,0.0
15/03/2023,05:02:04,0.000,0.0,0.0,0.0
15/03/2023,05:03:05,0.000,0.0,0.0,0.0
15/03/2023,05:04:04,0.000,0.0,0.0,0.0
15/03/2023,05:05:05,0.001,0.0,0.0,0.0
15/03/2023,05:06:05,0.000,0.0,0.0,0.0
15/03/2023,05:07:05,0.001,0.0,0.0,0.0
15/03/2023,05:08:05,0.000,0.0,0.0,0.0
15/03/2023,05:09:04,0.000,0.0,0.0,0.0
15/03/2023,05:10:04,0.001,0.0,0.0,0.0
15/03/2023,05:11:04,0.001,0.0,0.0,0.0
15/03/2023,05:12:05,0.000,0.0,0.0,0.0
15/03/2023,05:13:04,0.000,0.0,0.0,0.0
15/03/2023,05:14:05,0.001,0.0,0.0,0.0
15/03/2023,05:15:05,-0.001,0.0,0.0,0.0
15/03/2023,05:16:05,0.001,0.0,0.0,0.0
15/03/2023,05:17:05,0.000,0.0,0.0,0.0
15/03/2023,05:18:04,0.001,0.0,0.0,0.0
15/03/2023,05:19:04,0.001,0.0,0.0,0.0
15/03/2023,05:20:04,0.000,0.0,0.0,0.0
15/03/2023,05:21:05,0.001,0.0,0.0,0.0
15/03/2023,05:22:04,0.000,0.0,0.0,0.0
15/03/2023,05:23:05,0.000,0.0,0.0,0.0
15/03/2023,05:24:05,0.001,0.0,0.0,0.0
15/03/2023,05:25:05,-0.001,0.0,0.0,0.0
15/03/2023,05:26:04,0.000,0.0,0.0,0.0
15/03/2023,05:27:04,0.001,0.0,0.0,0.0
15/03/2023,05:28:05,0.000,0.0,0.0,0.0
15/03/2023,05:29:05,0.001,0.0,0.0,0.0
15/03/2023,05:30:04,0.000,0.0,0.0,0.0
15/03/2023,05:31:05,0.000,0.0,0.0,0.0
15/03/2023,05:32:05,0.001,0.0,0.0,0.0
15/03/2023,05:33:05,0.000,0.0,0.0,0.0
15/03/2023,05:34:05,0.001,0.0,0.0,0.0
15/03/2023,05:35:04,0.000,0.0,0.0,0.0
15/03/2023,05:36:04,0.001,0.0,0.0,0.0
15/03/2023,05:37:04,0.001,0.0,0.0,0.0
15/03/2023,05:38:05,0.001,0.0,0.0,0.0
15/03/2023,05:39:05,0.001,0.0,0.0,0.0
15/03/2023,05:40:05,-0.000,0.0,0.0,0.0
15/03/2023,05:41:05,0.000,0.0,0.0,0.0
15/03/2023,05:42:04,-0.000,0.0,0.0,0.0
15/03/2023,05:43:05,0.001,0.0,0.0,0.0
15/03/2023,05:44:04,0.001,0.0,0.0,0.0
15/03/2023,05:45:04,0.000,0.0,0.0,0.0
15/03/2023,05:46:05,0.000,0.0,0.0,0.0
15/03/2023,05:47:05,0.001,0.0,0.0,0.0
15/03/2023,05:48:05,0.001,0.0,0.0,0.0
15/03/2023,05:49:05,0.001,0.0,0.0,0.0
15/03/2023,05:50:05,0.001,0.0,0.0,0.0
15/03/2023,05:51:05,0.000,0.0,0.0,0.0
15/03/2023,05:52:05,-0.000,0.0,0.0,0.0
15/03/2023,05:53:05,0.001,0.0,0.0,0.0
15/03/2023,05:54:05,0.000,0.0,0.0,0.0
15/03/2023,05:55:05,0.002,0.0,0.0,0.0
15/03/2023,05:56:05,0.001,0.0,0.0,0.0
15/03/2023,05:57:05,0.001,0.0,0.0,0.0
15/03/2023,05:58:05,0.001,0.0,0.0,0.0
15/03/2023,05:59:05,0.002,0.0,0.0,0.0
15/03/2023,06:00:05,0.001,0.0,0.0,0.0
15/03/2023,06:01:04,0.001,0.0,0.0,0.0
15/03/2023,06:02:05,0.001,0.0,0.0,0.0
15/03/2023,06:03:05,-0.000,0.0,0.0,0.0
15/03/2023,06:04:05,0.001,0.0,0.0,0.0
15/03/2023,06:05:05,0.002,0.0,0.0,0.0
15/03/2023,06:06:05,0.001,0.0,0.0,0.0
15/03/2023,06:07:04,0.002,0.0,0.0,0.0
15/03/2023,06:08:04,-0.000,0.0,0.0,0.0
15/03/2023,06:09:04,-0.000,0.0,0.0,0.0
15/03/2023,06:10:04,0.002,0.0,0.0,0.0
15/03/2023,06:11:05,0.001,0.0,0.0,0.0
15/03/2023,06:12:04,0.001,0.0,0.0,0.0
15/03/2023,06:13:05,0.001,0.0,0.0,0.0
15/03/2023,06:14:05,0.002,0.0,0.0,0.0
15/03/2023,06:15:05,0.002,0.0,0.0,0.0
15/03/2023,06:16:04,0.001,0.0,0.0,0.0
15/03/2023,06:17:04,0.002,0.0,0.0,0.0
15/03/2023,06:18:05,0.001,0.0,0.0,0.0
15/03/2023,06:19:04,0.002,0.0,0.0,0.0
15/03/2023,06:20:04,0.001,0.0,0.0,0.0
15/03/2023,06:21:05,0.002,0.0,0.0,0.0
15/03/2023,06:22:04,0.002,0.0,0.0,0.0
15/03/2023,06:23:05,0.002,0.0,0.0,0.0
15/03/2023,06:24:05,0.002,0.0,0.0,0.0
15/03/2023,06:25:05,0.002,0.0,0.0,0.0
15/03/2023,06:26:05,0.004,0.0,0.0,0.0
15/03/2023,06:27:05,0.004,0.0,0.0,0.0
15/03/2023,06:28:05,0.003,0.0,0.0,0.0
15/03/2023,06:29:05,0.004,0.0,0.0,0.0
15/03/2023,06:30:04,0.004,0.0,0.0,0.0
15/03/2023,06:31:04,0.004,0.0,0.0,0.0
15/03/2023,06:32:04,0.003,0.0,0.0,0.0
15/03/2023,06:33:04,0.004,0.0,0.0,0.0
15/03/2023,06:34:04,0.005,0.0,0.0,0.0
15/03/2023,06:35:04,0.006,0.0,0.0,0.0
15/03/2023,06:36:05,0.005,0.0,0.0,0.0
15/03/2023,06:37:04,0.006,0.0,0.0,0.0
15/03/2023,06:38:04,0.006,0.0,0.0,0.0
15/03/2023,06:39:05,0.006,0.0,0.0,0.0
15/03/2023,06:40:05,0.006,0.0,0.0,0.0
15/03/2023,06:41:05,0.007,0.0,0.0,0.0
15/03/2023,06:42:05,0.007,0.0,0.0,0.0
15/03/2023,06:43:05,0.007,0.0,0.001,0.001
15/03/2023,06:44:04,0.008,0.0,0.001,0.0
15/03/2023,06:45:04,0.008,0.0,0.001,0.0
15/03/2023,06:46:04,0.009,0.0,0.001,0.0
15/03/2023,06:47:04,0.009,0.0,0.001,0.0
15/03/2023,06:48:05,0.009,0.0,0.001,0.0
15/03/2023,06:49:05,0.008,0.0,0.001,0.0
15/03/2023,06:50:05,0.010,0.0,0.002,0.001
15/03/2023,06:51:05,0.010,0.0,0.002,0.0
15/03/2023,06:52:05,0.011,0.0,0.002,0.0
15/03/2023,06:53:05,0.011,0.0,0.002,0.0
15/03/2023,06:54:05,0.012,0.0,0.002,0.0
15/03/2023,06:55:05,0.011,0.0,0.002,0.0
15/03/2023,06:56:05,0.012,0.0,0.003,0.001
15/03/2023,06:57:05,0.013,0.0,0.003,0.0
15/03/2023,06:58:05,0.013,0.0,0.003,0.0
15/03/2023,06:59:04,0.014,0.0,0.003,0.0
15/03/2023,07:00:05,0.014,0.0,0.004,0.001
15/03/2023,07:01:05,0.015,0.0,0.004,0.0
15/03/2023,07:02:05,0.015,0.0,0.004,0.0
15/03/2023,07:03:04,0.015,0.0,0.004,0.0
15/03/2023,07:04:05,0.016,0.0,0.005,0.001
15/03/2023,07:05:04,0.017,0.0,0.005,0.0
15/03/2023,07:06:04,0.019,0.0,0.005,0.0
15/03/2023,07:07:05,0.018,0.0,0.005,0.0
15/03/2023,07:08:05,0.019,0.0,0.006,0.001
15/03/2023,07:09:05,0.019,0.0,0.006,0.0
15/03/2023,07:10:05,0.020,0.0,0.006,0.0
15/03/2023,07:11:05,0.020,0.0,0.007,0.001
15/03/2023,07:12:05,0.022,0.0,0.007,0.0
15/03/2023,07:13:05,0.022,0.0,0.007,0.0
15/03/2023,07:14:05,0.023,0.0,0.008,0.001
15/03/2023,07:15:05,0.024,0.0,0.008,0.0
15/03/2023,07:16:05,0.024,0.0,0.009,0.001
15/03/2023,07:17:05,0.025,0.0,0.009,0.0
15/03/2023,07:18:05,0.025,0.0,0.009,0.0
15/03/2023,07:19:05,0.028,0.0,0.01,0.001
15/03/2023,07:20:04,0.027,0.0,0.01,0.0
15/03/2023,07:21:05,0.028,0.0,0.011,0.001
15/03/2023,07:22:05,0.029,0.0,0.011,0.0
15/03/2023,07:23:05,0.031,0.0,0.012,0.001
15/03/2023,07:24:04,0.032,0.0,0.012,0.0
15/03/2023,07:25:05,0.032,0.0,0.013,0.001
15/03/2023,07:26:04,0.033,0.0,0.013,0.0
15/03/2023,07:27:04,0.034,0.0,0.014,0.001
15/03/2023,07:28:05,0.034,0.0,0.014,0.0
15/03/2023,07:29:04,0.036,0.0,0.015,0.001
15/03/2023,07:30:05,0.036,0.0,0.016,0.001
15/03/2023,07:31:05,0.037,0.0,0.016,0.0
15/03/2023,07:32:05,0.039,0.0,0.017,0.001
15/03/2023,07:33:05,0.040,0.0,0.018,0.001
15/03/2023,07:34:05,0.040,0.0,0.018,0.0
15/03/2023,07:35:05,0.041,0.0,0.019,0.001
15/03/2023,07:36:05,0.042,0.0,0.02,0.001
15/03/2023,07:37:05,0.043,0.0,0.02,0.0
15/03/2023,07:38:05,0.044,0.0,0.021,0.001
15/03/2023,07:39:04,0.046,0.0,0.022,0.001
15/03/2023,07:40:04,0.047,0.0,0.022,0.0
15/03/2023,07:41:04,0.048,0.0,0.023,0.001
15/03/2023,07:42:04,0.048,0.0,0.024,0.001
15/03/2023,07:43:04,0.049,0.0,0.025,0.001
15/03/2023,07:44:05,0.050,0.0,0.026,0.001
15/03/2023,07:45:04,0.051,0.0,0.027,0.001
15/03/2023,07:46:04,0.053,0.0,0.027,0.0
15/03/2023,07:47:05,0.054,0.0,0.028,0.001
15/03/2023,07:48:05,0.055,0.0,0.029,0.001
15/03/2023,07:49:04,0.056,0.0,0.03,0.001
15/03/2023,07:50:05,0.057,0.0,0.031,0.001
15/03/2023,07:51:05,0.058,0.0,0.032,0.001
15/03/2023,07:52:04,0.059,0.0,0.033,0.001
15/03/2023,07:53:04,0.061,0.0,0.034,0.001
15/03/2023,07:54:04,0.061,0.0,0.035,0.001
15/03/2023,07:55:05,0.063,0.0,0.036,0.001
15/03/2023,07:56:05,0.064,0.0,0.037,0.001
15/03/2023,07:57:05,0.065,0.0,0.038,0.001
15/03/2023,07:58:04,0.066,0.0,0.039,0.001
15/03/2023,07:59:04,0.067,0.0,0.04,0.001
15/03/2023,08:00:04,0.069,0.0,0.041,0.001
15/03/2023,08:01:05,0.070,0.0,0.043,0.002
15/03/2023,08:02:05,0.072,0.0,0.044,0.001
15/03/2023,08:03:05,0.073,0.0,0.045,0.001
15/03/2023,08:04:05,0.074,0.0,0.046,0.001
15/03/2023,08:05:05,0.076,0.0,0.048,0.002
15/03/2023,08:06:05,0.079,0.0,0.049,0.001
15/03/2023,08:07:05,0.081,0.0,0.05,0.001
15/03/2023,08:08:05,0.083,0.0,0.052,0.002
15/03/2023,08:09:05,0.083,0.0,0.053,0.001
15/03/2023,08:10:05,0.086,0.0,0.054,0.001
15/03/2023,08:11:05,0.089,0.0,0.056,0.002
15/03/2023,08:12:04,0.091,0.0,0.057,0.001
15/03/2023,08:13:05,0.093,0.0,0.059,0.002
15/03/2023,08:14:05,0.095,0.0,0.06,0.001
15/03/2023,08:15:05,0.098,0.0,0.062,0.002
15/03/2023,08:16:05,0.100,0.0,0.064,0.002
15/03/2023,08:17:05,0.102,0.0,0.065,0.001
15/03/2023,08:18:05,0.105,0.0,0.067,0.002
15/03/2023,08:19:05,0.108,0.0,0.069,0.002
15/03/2023,08:20:05,0.112,0.0,0.071,0.002
15/03/2023,08:21:04,0.114,0.0,0.073,0.002
15/03/2023,08:22:05,0.117,0.0,0.074,0.001
15/03/2023,08:23:05,0.120,0.0,0.076,0.002
15/03/2023,08:24:05,0.123,0.0,0.078,0.002
15/03/2023,08:25:04,0.125,0.0,0.081,0.003
15/03/2023,08:26:05,0.129,0.0,0.083,0.002
15/03/2023,08:27:05,0.131,0.0,0.085,0.002
15/03/2023,08:28:05,0.134,0.0,0.087,0.002
15/03/2023,08:29:05,0.136,0.0,0.089,0.002
15/03/2023,08:30:04,0.139,0.0,0.092,0.003
15/03/2023,08:31:05,0.141,0.0,0.094,0.002
15/03/2023,08:32:05,0.144,0.0,0.096,0.002
15/03/2023,08:33:05,0.145,0.0,0.099,0.003
15/03/2023,08:34:05,0.146,0.0,0.101,0.002
15/03/2023,08:35:05,0.148,0.0,0.104,0.003
15/03/2023,08:36:05,0.151,0.0,0.106,0.002
15/03/2023,08:37:05,0.154,0.0,0.109,0.003
15/03/2023,08:38:05,0.156,0.0,0.111,0.002
15/03/2023,08:39:05,0.158,0.0,0.114,0.003
15/03/2023,08:40:05,0.161,0.0,0.117,0.003
15/03/2023,08:41:05,0.163,0.0,0.119,0.002
15/03/2023,08:42:04,0.164,0.0,0.122,0.003
15/03/2023,08:43:05,0.167,0.0,0.125,0.003
15/03/2023,08:44:05,0.167,0.0,0.128,0.003
15/03/2023,08:45:04,0.169,0.0,0.13,0.002
15/03/2023,08:46:04,0.172,0.0,0.133,0.003
15/03/2023,08:47:05,0.174,0.0,0.136,0.003
15/03/2023,08:48:05,0.177,0.0,0.139,0.003
15/03/2023,08:49:05,0.181,0.0,0.142,0.003
15/03/2023,08:50:05,0.184,0.0,0.145,0.003
15/03/2023,08:51:05,0.186,0.0,0.148,0.003
15/03/2023,08:52:05,0.189,0.0,0.151,0.003
15/03/2023,08:53:05,0.192,0.0,0.154,0.003
15/03/2023,08:54:05,0.194,0.0,0.158,0.004
15/03/2023,08:55:05,0.197,0.0,0.161,0.003
15/03/2023,08:56:05,0.198,0.0,0.164,0.003
15/03/2023,08:57:05,0.201,0.0,0.167,0.003
15/03/2023,08:58:04,0.202,0.0,0.171,0.004
15/03/2023,08:59:04,0.203,0.0,0.174,0.003
15/03/2023,09:00:05,0.204,0.0,0.178,0.004
15/03/2023,09:01:05,0.206,0.0,0.181,0.003
15/03/2023,09:02:04,0.209,0.0,0.184,0.003
15/03/2023,09:03:05,0.211,0.0,0.188,0.004
15/03/2023,09:04:05,0.213,0.0,0.191,0.003
15/03/2023,09:05:05,0.216,0.0,0.195,0.004
15/03/2023,09:06:04,0.217,0.0,0.199,0.004
15/03/2023,09:07:05,0.220,1.0,0.202,0.003
15/03/2023,09:08:05,0.221,1.0,0.206,0.004
15/03/2023,09:09:04,0.223,1.0,0.21,0.004
15/03/2023,09:10:05,0.224,1.0,0.213,0.003
15/03/2023,09:11:05,0.225,1.0,0.217,0.004
15/03/2023,09:12:05,0.226,1.0,0.221,0.004
15/03/2023,09:13:05,0.227,1.0,0.225,0.004
15/03/2023,09:14:05,0.227,1.0,0.229,0.004
15/03/2023,09:15:05,0.230,1.0,0.232,0.003
15/03/2023,09:16:05,0.232,1.0,0.236,0.004
15/03/2023,09:17:05,0.234,1.0,0.24,0.004
15/03/2023,09:18:04,0.237,1.0,0.244,0.004
15/03/2023,09:19:05,0.240,1.0,0.248,0.004
15/03/2023,09:20:04,0.243,1.0,0.252,0.004
15/03/2023,09:21:04,0.245,1.0,0.256,0.004
15/03/2023,09:22:05,0.247,1.0,0.26,0.004
15/03/2023,09:23:05,0.251,1.0,0.264,0.004
15/03/2023,09:24:05,0.252,1.0,0.269,0.005
15/03/2023,09:25:04,0.254,1.0,0.273,0.004
15/03/2023,09:26:05,0.256,1.0,0.277,0.004
15/03/2023,09:27:05,0.258,1.0,0.281,0.004
15/03/2023,09:28:05,0.261,1.0,0.285,0.004
15/03/2023,09:29:05,0.263,1.0,0.29,0.005
15/03/2023,09:30:05,0.265,1.0,0.294,0.004
15/03/2023,09:31:05,0.268,1.0,0.299,0.005
15/03/2023,09:32:05,0.269,1.0,0.303,0.004
15/03/2023,09:33:05,0.270,1.0,0.308,0.005
15/03/2023,09:34:05,0.272,1.0,0.312,0.004
15/03/2023,09:35:05,0.274,1.0,0.317,0.005
15/03/2023,09:36:05,0.277,1.0,0.321,0.004
15/03/2023,09:37:05,0.278,1.0,0.326,0.005
15/03/2023,09:38:05,0.281,1.0,0.331,0.005
15/03/2023,09:39:05,0.285,1.0,0.335,0.004
15/03/2023,09:40:06,0.288,1.0,0.34,0.005
15/03/2023,09:41:05,0.291,1.0,0.345,0.005
15/03/2023,09:42:05,0.294,1.0,0.35,0.005
15/03/2023,09:43:04,0.296,1.0,0.355,0.005
15/03/2023,09:44:05,0.298,1.0,0.36,0.005
15/03/2023,09:45:04,0.302,1.0,0.365,0.005
15/03/2023,09:46:05,0.304,1.0,0.37,0.005
15/03/2023,09:47:05,0.305,1.0,0.375,0.005
15/03/2023,09:48:05,0.305,1.0,0.38,0.005
15/03/2023,09:49:05,0.308,1.0,0.385,0.005
15/03/2023,09:50:04,0.309,1.0,0.39,0.005
15/03/2023,09:51:05,0.312,1.0,0.395,0.005
15/03/2023,09:52:05,0.316,1.0,0.401,0.006
15/03/2023,09:53:05,0.320,1.0,0.406,0.005
15/03/2023,09:54:05,0.322,1.0,0.411,0.005
15/03/2023,09:55:05,0.326,1.0,0.417,0.006
15/03/2023,09:56:05,0.327,1.0,0.422,0.005
15/03/2023,09:57:04,0.329,1.0,0.427,0.005
15/03/2023,09:58:05,0.329,1.0,0.433,0.006
15/03/2023,09:59:04,0.331,1.0,0.438,0.005
15/03/2023,10:00:05,0.332,1.0,0.444,0.006
15/03/2023,10:01:05,0.335,1.0,0.45,0.006
15/03/2023,10:02:05,0.337,1.0,0.455,0.005
15/03/2023,10:03:05,0.339,1.0,0.461,0.006
15/03/2023,10:04:05,0.341,1.0,0.466,0.005
15/03/2023,10:05:05,0.343,1.0,0.472,0.006
15/03/2023,10:06:05,0.344,1.0,0.478,0.006
15/03/2023,10:07:05,0.344,1.0,0.484,0.006
15/03/2023,10:08:05,0.346,1.0,0.49,0.006
15/03/2023,10:09:05,0.348,1.0,0.495,0.005
15/03/2023,10:10:05,0.350,1.0,0.501,0.006
15/03/2023,10:11:05,0.353,1.0,0.507,0.006
15/03/2023,10:12:05,0.354,1.0,0.513,0.006